Regional Weather Roundup
Issued by NWS Northern Indiana

Home | Current Version | Previous Version | Text Only | Print | Product List | Glossary On
Versions: 1 2 3 4 5 6 7 8 9 10 11 12 13 14 15 16 17 18 19 20 21 22 23 24 25 26 27 28 29 30 31 32 33 34 35 36 37 38 39 40 41 42 43 44 45 46 47 48 49 50
000
ASUS43 KIWX 032010
RWRIWX

KIWX WEATHER ROUNDUP
NATIONAL WEATHER SERVICE NORTHERN INDIANA
400 PM EDT MON AUG 03 2015

NOTE: "FAIR" INDICATES FEW OR NO CLOUDS BELOW 12,000 FEET WITH NO
SIGNIFICANT WEATHER AND/OR OBSTRUCTIONS TO VISIBILITY.

* THESE STATIONS ARE NOT UNDER NWS QUALITY CONTROL. THEY ALSO MAY NOT
  REPORT WEATHER SUCH AS PRECIPITATION OR FOG.

INZ001>027-032100-
NORTHERN INDIANA

CITY           SKY/WX    TMP DP  RH WIND       PRES   REMARKS
GARY*          MOSUNNY   79  57  47 NE12      29.86F
VALPARAISO     SUNNY     81  60  48 NW8       29.86F
MICHIGAN CITY* SUNNY     75  52  43 N7        29.87S
LAPORTE*       SUNNY     79  58  47 NW6       29.87F
KNOX*          SUNNY     79  59  50 NW9       29.85S
SOUTH BEND     SUNNY     80  53  39 NW13G21   29.86S
ELKHART*       SUNNY     79  48  34 NW13G22   29.86S
GOSHEN         MOSUNNY   78  60  53 W18       29.84S
MONTICELLO*    MOSUNNY   83  63  50 W9G16     29.84F
LOGANSPORT*    MOSUNNY   82  59  44 W8        29.85F
ROCHESTER*     SUNNY     82  55  39 NW14      29.85S
WARSAW*        MOSUNNY   79  59  50 NW14G21   29.85S
ANGOLA*        PTSUNNY   79  61  53 NW12      29.83S
FORT WAYNE     PTSUNNY   83  59  44 NW14G22   29.82F
HUNTINGTON*    MOSUNNY   82  62  50 W9        29.83S
PERU/GRISSOM   SUNNY     83  63  50 NW13      29.83F
MARION*        PTSUNNY   81  64  56 NW9       29.84F

$$
INZ028>050-032100-
CENTRAL INDIANA

CITY           SKY/WX    TMP DP  RH WIND       PRES   REMARKS
LAFAYETTE      PTSUNNY   83  64  52 NW7       29.85S
KOKOMO*        MOSUNNY   84  64  51 W13       29.84F
MUNCIE*        MOSUNNY   81  67  62 NW15      29.83S
INDIANAPOLIS   PTSUNNY   89  65  44 W16       29.84S

$$
MIZ043>046-050>051-056>058-064>065-071>073-077>080-032100-
SOUTHWEST LOWER MICHIGAN

CITY           SKY/WX    TMP DP  RH WIND       PRES   REMARKS
BATTLE CREEK     N/A    N/A N/A N/A MISG      29.84R
BENTON HARBOR  SUNNY     76  57  51 W10       29.86S
COLDWATER*     MOSUNNY   77  51  39 NW15G22   29.83S
HILLSDALE*     MOSUNNY   79  56  45 W20G25    29.83S
HOLLAND        SUNNY     76  54  46 W16G24    29.85R
GRAND RAPIDS   MOSUNNY   77  49  37 W20       29.82S
KALAMAZOO      SUNNY     79  50  36 NW16G24   29.84R
STURGIS*       SUNNY     77  55  47 W13       29.84S
THREE RIVERS*  FAIR      78  53  42 NW15G23   29.85R

$$
OHZ001>008-015>018-024>025-032100-
NORTHWEST OHIO

CITY           SKY/WX    TMP DP  RH WIND       PRES   REMARKS
WAUSEON*       PTSUNNY   79  64  61 W9        29.81S
DEFIANCE       MOSUNNY   83  60  45 W12G21    29.81F
FINDLAY        MOSUNNY   81  67  62 SW12      29.81F
TOLEDO EXPRESS MOSUNNY   81  62  52 SW13G20   29.79F
TOLEDO METCALF MOSUNNY   81  60  48 W15       29.80F
LIMA           MOSUNNY   81  65  58 W13       29.83F

$$
AND FOR LAKE MICHIGAN COASTAL AND OPEN LAKE BUOY OBSERVATIONS

STATION/POSITION TEMP    WIND        PRES    VSBY  WAVE
                 AIR SEA DIR/SP/G                  HT/PER
                 (F)     (DEG/KT/KT) (MB)    (MI)  (FT/S)
CALUMET HARBOR    73      60/  7/ 10   N/A
MICHIGAN CITY     74     350/  5/  6   N/A
BURNS HARBOR      74      70/  6/  8 1011.9S
SAINT JOSEPH      77     230/  6/  8 1011.9R
4 MI NW BRIDGMAN  72 73  340/  6/  8   N/A           2/ 4
MICHIGAN CITY     73 75   30/  2/  4   N/A           2/ 4
MICHIGAN CITY CG  73 75   30/  3       N/A       6   2

$$
&&



USA.gov is the U.S. government's official web portal to all federal, state and local government web resources and services.